Notices

What's New in latest Release from April 7th, 2021:

- Updated Glossary, including Speed of Maximum Gust, and Total Hourly Precipitation

- Updated national and regional climate services offices contacts and prices information

- Addition of station inventory lists for 1981-2010, 1971-2000, and 1961-1990 Normals.

If you haven't already, please take our survey and provide feedback about our website: https://eccc.sondage-survey.ca/f/LanguageSelection.aspx?s=442ca660-fcf1-47c0-95a9-59707d6fd709

Hourly Data Report for April 09, 2016

MIRAMICHI RCS
NEW BRUNSWICK

47°00'34.000" N
65°27'54.000" W
33.00 m
8100989
71744
ACQ

Download Data

Hourly Data (April 2016)
Hourly Data Report for April 9, 2016
TIME
LST
Temp Definition
°C
Dew Point Definition
°C
Rel Hum Definition
%
Precip. Amount Definition
mm

Wind Dir Definition
10's deg

Wind Spd Definition
km/h
Visibility Definition
km
Stn Press Definition
kPa
Hmdx Definition


Wind Chill Definition


Weather Definition


00:00 5.0 1.8 80 0.0 20 13   99.71     LegendNANA
01:00 3.5 1.3 86 0.0 21 8   99.72     LegendNANA
02:00 4.1 2.0 86 0.0 21 16   99.66     LegendNANA
03:00 3.9 1.8 87 0.0 22 12   99.67     LegendNANA
04:00 3.3 1.5 88 0.0 22 5   99.73     LegendNANA
05:00 3.6 1.8 88 0.0 22 9   99.57     LegendNANA
06:00 3.7 1.8 87 0.0 20 12   99.70     LegendNANA
07:00 3.5 1.8 89 0.0 17 4   99.72     LegendNANA
08:00 4.1 2.1 87 0.0 22 5   99.75     LegendNANA
09:00 4.3 2.1 86 0.0 30 5   99.78     LegendNANA
10:00 5.3 1.4 76 0.0 23 3   99.78     LegendNANA
11:00 5.5 0.7 71 0.0 26 12   99.81     LegendNANA
12:00 7.0 -0.4 59 0.0 29 10   99.79     LegendNANA
13:00 7.1 -1.8 53 0.0 25 21   99.83     LegendNANA
14:00 7.4 -3.3 46 0.0 25 21   99.91     LegendNANA
15:00 6.8 -3.5 48 0.0 25 22   99.99     LegendNANA
16:00 6.9 -3.8 46 0.0 26 19   100.05     LegendNANA
17:00 5.8 -4.3 48 0.0 25 22   100.15     LegendNANA
18:00 4.5 -4.5 52 0.0 25 23   100.28     LegendNANA
19:00 3.4 -3.9 59 0.0 24 17   100.46     LegendNANA
20:00 2.8 -4.6 58 0.0 24 16   100.55     LegendNANA
21:00 0.9 -4.9 65 0.0 27 6   100.58     LegendNANA
22:00 -0.3 -4.6 72 0.0 25 5   100.63   -2 LegendNANA
23:00 -0.5 -4.4 75 0.0 29 5   100.65   -2 LegendNANA

Notes on Data Quality.

Legend

  • E = Estimated
  • M = Missing
  • NA = Not Available*
  • [empty] = Indicates an unobserved value
Date modified: